Location: Augsburg
(48.3836°N, 10.8929°E)
Time: 02:07:01
(UTC+01:00)

ISS - Visible Passes

Search period start: 01 December 2021 00:00
Search period end: 11 December 2021 00:00
Orbit: 417 x 423 km, 51.6° (Epoch: 30 November)

Date Brightness Start Highest point End Pass type
(mag) Time Alt. Az. Time Alt. Az. Time Alt. Az.
01 Dec -3.2 17:07:58 10° WNW 17:11:16 46° N 17:14:25 11° ENE visible
01 Dec -2.7 18:44:57 10° WNW 18:47:25 44° WNW 18:47:25 44° WNW visible
02 Dec -3.7 17:57:45 10° WNW 18:01:08 62° NNE 18:02:15 37° E visible
02 Dec -0.4 19:34:42 10° WNW 19:35:14 13° W 19:35:14 13° W visible
03 Dec -3.5 17:10:31 10° WNW 17:13:52 53° N 17:17:09 10° E visible
03 Dec -2.7 18:47:25 10° WNW 18:50:09 46° WSW 18:50:09 46° WSW visible
04 Dec -3.7 18:00:10 10° WNW 18:03:34 77° SSW 18:05:12 28° ESE visible
04 Dec -0.3 19:37:45 10° W 19:38:12 12° WSW 19:38:12 12° WSW visible
05 Dec -3.8 17:12:56 10° WNW 17:16:20 80° NNE 17:19:45 10° ESE visible
05 Dec -1.7 18:50:06 10° W 18:52:54 24° SW 18:53:25 23° SSW visible
06 Dec -2.2 18:02:39 10° WNW 18:05:48 36° SW 18:08:52 10° SSE visible
07 Dec -2.9 17:15:19 10° WNW 17:18:38 52° SSW 17:21:57 10° SE visible
07 Dec -0.4 18:54:19 10° SW 18:54:50 10° SW 18:55:22 10° SW visible
08 Dec -0.7 18:05:39 10° W 18:07:49 16° SW 18:09:58 10° S visible
09 Dec -1.1 17:17:56 10° W 17:20:43 24° SW 17:23:30 10° SSE visible
